CW0783 Weather Reports


time (UTC)temp
C
wind
direction
speed
KPH
gust
KPH
rain 1hr
cm
rain 24hr
cm
rain mn
cm
humidity
%
barometer
mb
20260503215341 16 232 6.4 11.3 0.00 0.30 0.30 52 1009.9
20260503214838 16 195 6.4 9.7 0.00 0.30 0.30 53 1010.1
20260503214336 16 206 8.0 12.9 0.00 0.30 0.30 51 1010.2
20260503213833 15 227 4.8 9.7 0.00 0.30 0.30 52 1010.4
20260503213330 15 220 8.0 12.9 0.00 0.30 0.30 52 1010.5
20260503212827 15 167 9.7 16.1 0.00 0.30 0.30 50 1010.5
20260503212325 15 190 8.0 25.7 0.00 0.30 0.30 51 1010.8
20260503211822 15 240 6.4 11.3 0.00 0.30 0.30 52 1010.8
20260503211319 15 233 11.3 20.9 0.00 0.30 0.30 51 1010.5
20260503210819 15 173 9.7 14.5 0.00 0.30 0.30 53 1010.5
20260503210316 15 235 9.7 16.1 0.00 0.30 0.30 52 1010.7
20260503205811 15 216 8.0 12.9 0.00 0.30 0.30 52 1010.5
20260503205308 15 227 8.0 11.3 0.00 0.30 0.30 52 1010.4
20260503204805 16 214 17.7 24.1 0.00 0.30 0.30 50 1010.7
20260503204303 16 181 8.0 17.7 0.00 0.30 0.30 54 1010.6
20260503203759 15 205 9.7 22.5 0.00 0.30 0.30 55 1010.7
20260503203257 14 171 9.7 12.9 0.00 0.30 0.30 71 1010.8
20260503202754 13 209 9.7 14.5 0.00 0.30 0.30 72 1010.6
20260503202252 13 184 6.4 16.1 0.00 0.30 0.30 72 1011.0
20260503201750 13 201 9.7 14.5 0.00 0.30 0.30 69 1011.1
20260503201247 13 204 6.4 9.7 0.00 0.30 0.30 72 1011.1
20260503200743 12 184 6.4 11.3 0.00 0.30 0.30 73 1011.6
20260503200239 12 185 6.4 9.7 0.00 0.30 0.30 74 1011.5
20260503195736 11 151 9.7 11.3 0.00 0.30 0.30 76 1011.7
20260503195233 11 113 3.2 6.4 0.00 0.30 0.30 78 1011.8
20260503194731 11 193 9.7 11.3 0.00 0.30 0.30 81 1011.9
20260503194226 10 196 1.6 3.2 0.00 0.30 0.30 83 1012.1
20260503193723 10 131 1.6 9.7 0.00 0.30 0.30 83 1012.1
20260503193219 10 167 3.2 9.7 0.00 0.30 0.30 83 1012.3
20260503192715 10 162 11.3 12.9 0.00 0.30 0.30 84 1012.4
20260503192210 9 196 6.4 9.7 0.00 0.30 0.30 86 1012.4
20260503191707 9 190 3.2 4.8 0.00 0.30 0.30 88 1012.4
20260503191204 8 174 4.8 14.5 0.00 0.30 0.30 87 1012.6
20260503190701 8 217 6.4 11.3 0.00 0.30 0.30 89 1012.5
20260503190157 8 208 6.4 9.7 0.13 0.30 0.30 89 1012.7
20260503185654 8 215 3.2 6.4 0.30 0.30 0.30 89 1012.8
20260503185149 8 172 6.4 9.7 0.18 0.28 0.28 89 1013.3
20260503184645 8 197 3.2 4.8 0.13 0.25 0.25 88 1013.9
20260503184142 8 212 3.2 4.8 0.30 0.25 0.25 87 1014.2
20260503183638 8 175 1.6 4.8 0.30 0.23 0.23 86 1014.4
20260503183136 8 213 4.8 11.3 0.61 0.20 0.20 85 1014.5
20260503182633 9 221 9.7 14.5 0.61 0.18 0.18 84 1014.5
20260503182132 9 184 9.7 12.9 0.13 0.10 0.10 84 1014.9
20260503181628 9 221 4.8 6.4 0.00 0.08 0.08 84 1014.8
20260503181125 8 242 4.8 6.4 0.00 0.08 0.08 85 1015.0
20260503180622 8 211 4.8 6.4 0.00 0.08 0.08 85 1014.9
20260503180120 8 219 8.0 11.3 0.00 0.08 0.08 84 1015.1
20260503175616 8 210 6.4 9.7 0.18 0.08 0.08 85 1015.2
20260503175114 8 223 3.2 9.7 0.18 0.08 0.08 84 1015.2
20260503174610 8 207 4.8 6.4 0.13 0.05 0.05 84 1014.9
20260503174107 9 190 3.2 4.8 0.13 0.05 0.05 83 1015.6
20260503173602 9 209 6.4 12.9 0.18 0.03 0.03 80 1015.4
20260503173059 10 220 6.4 9.7 0.18 0.03 0.03 78 1015.7
20260503172556 10 244 4.8 16.1 0.00 0.00 0.00 74 1015.8
20260503172053 10 182 6.4 11.3 0.00 0.00 0.00 72 1015.6
20260503171549 11 207 4.8 16.1 0.00 0.00 0.00 69 1015.4
20260503171047 11 231 8.0 9.7 0.00 0.00 0.00 68 1015.6
20260503170543 11 214 12.9 22.5 0.00 0.00 0.00 67 1015.4
20260503150936 12 183 6.4 14.5 0.00 0.00 0.00 54 1015.9
20260503150432 12 209 12.9 14.5 0.00 0.00 0.00 55 1015.9
20260503131325 9 222 9.7 11.3 0.00 0.00 0.00 61 1016.7
20260503130823 9 229 6.4 11.3 0.00 0.00 0.00 61 1016.7
20260503130320 9 230 6.4 6.4 0.00 0.00 0.00 61 1016.9
20260503110714 5 219 3.2 6.4 0.00 0.00 0.00 66 1016.7
20260503110211 5 221 3.2 9.7 0.00 0.00 0.00 67 1016.7
20260503100137 5 205 3.2 4.8 0.00 0.00 0.00 63 1016.3
20260503081527 5 223 3.2 6.4 0.00 0.00 0.00 65 1016.8
20260503081024 5 215 3.2 4.8 0.00 0.00 0.00 64 1016.7
20260503080520 5 203 4.8 4.8 0.00 0.00 0.00 64 1016.6
20260503072454 5 237 3.2 4.8 0.00 0.00 0.00 66 1016.7
20260503071951 5 255 4.8 4.8 0.00 0.00 0.00 66 1016.9
20260503071448 5 230 1.6 4.8 0.00 0.00 0.00 66 1017.0
20260503070944 5 232 1.6 4.8 0.00 0.00 0.00 66 1017.0
20260503070441 5 232 3.2 4.8 0.00 0.00 0.00 66 1017.1
20260503054900 6 234 3.2 3.2 0.00 0.00 0.00 65 1017.8
20260503054356 6 211 1.6 3.2 0.00 0.00 0.00 65 1017.7
20260503053854 6 217 1.6 3.2 0.00 0.00 0.00 65 1017.9
20260503053352 6 232 3.2 6.4 0.00 0.00 0.00 64 1017.8
20260503052848 6 211 4.8 4.8 0.00 0.00 0.00 64 1018.0
20260503052345 6 246 1.6 4.8 0.00 0.00 0.00 64 1017.6
20260503051841 6 220 3.2 4.8 0.00 0.00 0.00 64 1017.9
20260503051337 6 219 1.6 4.8 0.00 0.00 0.00 63 1017.9
20260503050835 6 223 1.6 3.2 0.00 0.00 0.00 63 1017.9
20260503050331 6 209 3.2 3.2 0.00 0.00 0.00 63 1018.0
20260503045828 6 207 1.6 3.2 0.00 0.00 0.00 63 1018.0
20260503045326 6 204 3.2 3.2 0.00 0.00 0.00 62 1018.0
20260503044822 6 219 3.2 4.8 0.00 0.00 0.00 62 1017.9
20260503044319 6 194 1.6 3.2 0.00 0.00 0.00 62 1018.0
20260503043816 6 209 0.0 0.0 0.00 0.00 0.00 62 1018.0
20260503043313 6 208 1.6 3.2 0.00 0.00 0.00 61 1018.0
20260503042809 6 213 1.6 3.2 0.00 0.00 0.00 62 1018.1
20260503042306 6 207 0.0 0.0 0.00 0.00 0.00 61 1018.1
20260503041802 6 207 1.6 3.2 0.00 0.00 0.00 61 1018.3
20260503041300 6 217 1.6 1.6 0.00 0.00 0.00 61 1018.2
20260503040757 6 206 0.0 1.6 0.00 0.00 0.00 62 1018.2
20260503040255 6 197 1.6 3.2 0.00 0.00 0.00 62 1018.2
20260503035751 6 208 0.0 0.0 0.00 0.00 0.00 62 1018.2
20260503035249 6 203 0.0 0.0 0.00 0.00 0.00 64 1018.2
20260503034746 6 206 0.0 0.0 0.00 0.00 0.00 62 1018.1
20260503034243 6 193 0.0 0.0 0.00 0.00 0.00 63 1018.2
20260503033741 6 196 0.0 0.0 0.00 0.00 0.00 64 1018.1
20260503033238 6 204 0.0 0.0 0.00 0.00 0.00 65 1018.1
20260503032736 6 186 0.0 0.0 0.00 0.00 0.00 65 1018.2
20260503032234 5 191 0.0 0.0 0.00 0.00 0.00 68 1018.2
20260503031731 5 180 0.0 0.0 0.00 0.00 0.00 69 1018.3
20260503031229 5 168 0.0 0.0 0.00 0.00 0.00 73 1018.2
20260503030725 5 164 0.0 0.0 0.00 0.00 0.00 73 1018.3
20260503030221 5 155 0.0 0.0 0.00 0.00 0.00 72 1018.3
20260503025718 4 151 0.0 0.0 0.00 0.00 0.00 70 1018.2
20260503025216 5 147 0.0 0.0 0.00 0.00 0.00 70 1018.4
20260503024712 5 148 0.0 0.0 0.00 0.00 0.00 69 1018.4
20260503024210 5 148 0.0 0.0 0.00 0.00 0.00 67 1018.4
20260503023707 5 146 0.0 0.0 0.00 0.00 0.00 68 1018.2
20260503023203 5 154 0.0 0.0 0.00 0.00 0.00 70 1018.3
20260503022659 5 154 0.0 0.0 0.00 0.00 0.00 69 1018.3
20260503022159 5 154 0.0 0.0 0.00 0.00 0.00 68 1018.3
20260503021656 5 154 0.0 0.0 0.00 0.00 0.00 67 1018.2
20260503021153 5 154 0.0 0.0 0.00 0.00 0.00 66 1018.4
20260503020650 5 154 0.0 0.0 0.00 0.00 0.00 66 1018.3
20260503020147 5 154 0.0 0.0 0.00 0.00 0.00 65 1018.2
20260503015644 5 154 0.0 0.0 0.00 0.00 0.00 65 1018.2
20260503015141 5 161 0.0 0.0 0.00 0.00 0.00 64 1018.1
20260503014637 5 154 0.0 0.0 0.00 0.00 0.00 66 1018.1
20260503014135 6 154 0.0 0.0 0.00 0.00 0.00 63 1018.2
20260503013632 6 154 0.0 0.0 0.00 0.00 0.00 60 1018.2
20260503013130 6 154 0.0 0.0 0.00 0.00 0.00 59 1018.2
20260503012627 6 154 0.0 0.0 0.00 0.00 0.00 59 1018.2
20260503012123 6 167 0.0 0.0 0.00 0.00 0.00 62 1017.9
20260503011620 6 167 0.0 0.0 0.00 0.00 0.00 63 1018.1
20260503011117 7 167 0.0 0.0 0.00 0.00 0.00 60 1017.9
20260503010613 7 167 0.0 0.0 0.00 0.00 0.00 58 1018.1
20260503010111 7 167 0.0 0.0 0.00 0.00 0.00 61 1018.0
20260503005608 7 167 0.0 0.0 0.00 0.00 0.00 59 1017.9
20260503005105 8 167 0.0 0.0 0.00 0.00 0.00 60 1018.0
20260503004601 8 155 0.0 0.0 0.00 0.00 0.00 58 1017.9
20260503004100 9 138 0.0 0.0 0.00 0.00 0.00 53 1018.2
20260503003556 9 138 0.0 0.0 0.00 0.00 0.00 52 1018.2
20260503003053 10 137 0.0 0.0 0.00 0.00 0.00 48 1018.2
20260503002550 10 137 0.0 0.0 0.00 0.00 0.00 52 1018.2
20260503002047 10 157 0.0 0.0 0.00 0.00 0.00 58 1018.1
20260503001543 10 149 0.0 0.0 0.00 0.00 0.00 56 1017.9
20260503001041 10 148 0.0 0.0 0.00 0.00 0.00 50 1018.2
20260503000538 10 148 0.0 0.0 0.00 0.00 0.00 49 1018.3
20260503000035 10 149 0.0 0.0 0.00 0.00 0.00 48 1018.0
20260502235531 10 149 0.0 0.0 0.00 0.00 0.00 52 1018.3
20260502235029 10 172 0.0 0.0 0.00 0.00 0.00 42 1018.0
20260502234525 11 167 0.0 0.0 0.00 0.00 0.00 46 1018.3
20260502234023 11 202 0.0 0.0 0.00 0.00 0.00 39 1018.1
20260502233518 11 178 0.0 0.0 0.00 0.00 0.00 44 1018.1
20260502233015 11 199 1.6 1.6 0.00 0.00 0.00 40 1018.3
20260502232511 11 169 0.0 0.0 0.00 0.00 0.00 39 1018.4
20260502232008 11 224 0.0 1.6 0.00 0.00 0.00 38 1018.3
20260502231506 11 221 1.6 3.2 0.00 0.00 0.00 37 1018.3
20260502231004 11 206 0.0 1.6 0.00 0.00 0.00 37 1018.2
20260502230501 12 245 0.0 0.0 0.00 0.00 0.00 36 1018.3
20260502230000 12 178 0.0 0.0 0.00 0.00 0.00 40 1018.0
20260502225455 11 324 0.0 0.0 0.00 0.00 0.00 37 1018.4
20260502224952 11 56 0.0 0.0 0.00 0.00 0.00 38 1018.1
20260502224448 11 317 1.6 1.6 0.00 0.00 0.00 37 1018.5
20260502223945 11 247 1.6 1.6 0.00 0.00 0.00 37 1018.3
20260502223443 11 211 3.2 6.4 0.00 0.00 0.00 37 1018.3
20260502222941 12 243 3.2 3.2 0.00 0.00 0.00 36 1018.4
20260502222438 12 248 3.2 3.2 0.00 0.00 0.00 34 1018.4
20260502221934 12 190 0.0 3.2 0.00 0.00 0.00 38 1018.2
20260502221430 12 322 0.0 0.0 0.00 0.00 0.00 38 1018.4
20260502220927 13 159 1.6 3.2 0.00 0.00 0.00 33 1018.4
20260502220423 12 316 1.6 1.6 0.00 0.00 0.00 37 1018.4
20260502215920 12 195 0.0 0.0 0.00 0.00 0.00 35 1018.4
20260502215417 12 339 3.2 6.4 0.00 0.00 0.00 34 1018.4